Location: White Ridge parking lot
(35.4984°N, 106.8413°W)
Time: 22:08:59
(UTC-06:00)

ITAMSAT 1 - Pass Details

Date: 17 September 2019
Orbit: 784 x 796 km, 98.9° (Epoch: 23 October)

Event Time Altitude Azimuth Distance (km) Brightness Sun altitude
Rises 05:04:03 0° 38° (NE) 3,276 11.8 -22.2°
Reaches altitude 10° 05:07:46 10° 65° (ENE) 2,344 11.3 -21.5°
Maximum altitude 05:10:05 13° 92° (E) 2,136 10.8 -21.0°
Drops below altitude 10° 05:12:25 10° 119° (ESE) 2,340 10.7 -20.6°
Sets 05:16:06 0° 147° (SSE) 3,266 11.1 -19.9°
